SCP
0 0 0 0 0 0 0 0 0 0 0 0 0 0 0 0 0 0 0 0 0 0 0 0 0 0 0 0 0 0 0 0 0 0 0 0 0 0 0 0 0 0 0 0
0 0 0 0 0 0 0 0 0 0 0 0 0 0 0 0 0 0 0 0 0 0 0 0 0 0 0 0 0 0 0 0 0 0 0 0 0 0 0 0 0 0 0 0
0 0 0 0 0 0 0 0 0 0 0 0 0 0 0 0 0 0 0 0 0 0 0 0 0 0 0 0 0 0 0 0 0 0 0 0 0 0 0 0 0 0 0 0
0 0 0 0 0 0 0 0 0 0 0 0 0 0 0 0 0 0 0 0 0 0 0 0 1 1 1 1 1 1 1 1 1 1 0 0 0 0 0 0 0 0 0 0
0 0 0 0 0 0 0 0 0 0 0 0 0 0 0 0 0 0 0 0 0 0 0 1 1 1 1 1 1 1 1 1 1 1 1 0 0 0 0 0 0 0 0 0
0 0 0 0 0 0 0 0 0 0 0 0 0 0 0 0 0 0 0 0 1 1 1 1 1 1 1 1 1 1 1 1 1 1 0 0 0 0 0 0 0 0 0 0
0 0 0 0 0 0 0 0 0 0 0 0 0 0 0 0 0 1 1 1 1 1 1 1 1 1 1 1 1 1 1 1 1 0 0 0 0 0 0 0 0 0 0 0
0 0 0 0 0 0 0 0 0 0 0 0 0 0 0 0 0 1 1 1 1 1 1 1 1 1 1 1 1 1 1 1 0 0 0 0 0 0 0 0 0 0 0 0
0 0 0 0 0 0 0 0 0 0 0 0 0 0 0 0 0 1 1 1 1 1 1 1 1 1 1 1 1 1 1 1 0 0 0 0 0 0 0 0 0 0 0 0
0 0 0 0 0 0 0 0 0 0 0 0 0 0 0 0 0 0 0 1 1 1 1 1 1 1 1 1 1 1 1 1 0 0 0 0 0 0 0 0 0 0 0 0
0 0 0 0 0 0 0 0 0 0 0 0 0 0 0 0 0 0 0 0 1 1 1 1 1 1 1 1 1 1 0 0 0 0 0 0 0 0 0 0 0 0 0 0
0 0 0 0 0 0 0 0 0 0 0 0 0 0 0 0 0 0 0 0 0 1 1 1 0 0 0 0 0 0 0 0 0 0 0 0 0 0 0 0 0 0 0 0
0 0 0 0 0 0 0 0 0 0 0 0 0 0 0 0 0 0 0 0 0 0 0 0 0 0 0 0 0 0 0 0 0 0 0 0 0 0 0 0 0 0 0 0
0 0 0 0 0 0 0 0 0 0 0 0 0 0 0 0 0 0 0 0 0 0 0 0 0 0 0 0 0 0 0 0 0 0 0 0 0 0 0 0 0 0 0 0
0 0 0 0 0 0 0 0 0 0 0 0 0 0 0 0 0 0 0 0 0 0 0 0 0 0 0 0 0 0 0 0 0 0 0 0 0 0 0 0 0 0 0 0
0 0 0 0 0 0 0 0 0 0 0 0 0 0 0 0 0 0 0 0 0 0 0 0 0 0 0 0 0 0 0 0 0 0 0 0 0 0 0 0 0 0 0 0
0 0 0 0 0 0 0 0 0 0 0 0 0 0 0 0 0 0 0 0 0 0 0 0 0 0 0 0 0 0 0 0 0 0 0 0 0 0 0 0 0 0 0 0
0 0 0 0 0 0 0 0 0 0 0 0 0 0 0 0 0 0 0 0 0 0 0 0 0 0 0 0 0 0 0 0 0 0 0 0 0 0 0 0 0 0 0 0
0 0 0 0 0 0 0 0 0 0 0 0 0 0 0 0 0 0 0 0 0 0 0 0 0 0 0 0 0 0 0 0 0 0 0 0 0 0 0 0 0 0 0 0
0 0 0 0 0 0 0 0 0 0 0 0 0 0 0 0 0 0 0 0 0 0 0 0 0 0 0 0 0 0 0 0 0 0 0 0 0 0 0 0 0 0 0 0
0 0 0 0 0 0 0 0 0 0 0 0 0 0 0 0 0 0 0 0 0 0 0 0 0 0 0 0 0 0 0 0 0 0 0 0 0 0 0 0 0 0 0 0
0 0 0 0 0 0 -0 -0 0 0 0 0 0 0 0 0 0 0 0 0 0 0 0 0 0 0 0 0 0 0 0 0 0 0 0 0 0 0 0 0 0 0 0 0
0 0 0 0 0 0 0 0 0 0 0 0 0 0 0 0 0 0 0 0 0 0 0 0 0 0 0 0 0 0 0 0 0 0 0 0 0 0 0 0 0 0 0 0
0 0 0 0 0 0 0 0 0 0 0 0 0 0 0 0 0 0 0 0 0 0 0 0 0 0 0 0 0 0 0 0 0 0 0 0 0 0 0 0 0 0 0 0
0 0 0 0 0 0 0 0 0 0 0 0 0 0 0 0 0 0 0 0 0 0 0 0 0 0 0 0 0 0 0 0 0 0 0 0 0 0 0 0 0 0 0 0
0 0 0 0 0 0 0 0 0 0 0 0 0 0 0 0 0 0 0 0 0 0 0 0 0 0 0 0 0 0 0 0 0 0 0 0 0 0 0 0 0 0 0 0
0 0 0 0 0 0 0 0 0 0 0 0 0 0 0 0 0 0 0 0 0 0 0 0 0 0 0 0 0 0 0 0 0 0 0 0 0 0 0 0 0 0 0 0
Wind_Speed
13 10 9 10 11 13 14 14 13 10 8 5 5 8 10 12 15 16 17 18 18 17 16 16 16 15 15 15 14 13 13 13 12 11 11 10 10 10 9 9 9 8 8 8
12 11 11 13 13 13 14 14 14 13 10 5 3 6 9 12 15 16 18 19 19 18 17 17 17 16 15 15 14 14 14 13 12 12 11 11 11 10 10 10 9 8 9 9
10 9 9 13 14 14 14 13 12 13 9 4 4 6 8 11 13 16 17 18 19 18 18 17 17 16 16 15 14 14 14 13 12 12 12 12 11 11 11 10 10 10 10 10
8 7 12 6 3 8 11 11 10 10 7 4 4 4 5 7 10 12 14 16 16 16 17 16 16 16 15 15 15 14 14 13 13 13 12 12 11 11 10 9 9 9 10 10
7 10 10 5 3 5 7 7 6 7 6 3 2 4 6 4 6 9 11 12 12 14 15 14 15 15 15 15 15 14 14 13 13 12 12 11 11 11 10 9 9 9 9 10
8 9 9 2 3 0 4 5 2 2 2 2 4 6 3 2 3 5 7 9 10 11 12 12 13 14 14 14 14 14 13 12 11 11 11 11 10 10 9 8 9 9 9 9
11 10 6 3 2 4 6 2 4 2 1 1 1 3 3 1 2 3 5 7 9 10 9 10 11 12 12 12 12 11 11 10 10 10 10 9 9 8 8 8 8 8 8 8
7 8 3 4 1 1 4 4 3 3 2 2 2 2 3 4 4 5 6 8 9 9 9 8 10 11 10 10 9 9 9 9 9 9 8 8 8 7 7 7 8 8 8 9
3 1 4 4 4 4 3 3 2 2 2 2 3 4 5 5 5 5 6 7 8 9 9 8 8 9 9 8 8 9 9 8 8 8 7 6 7 7 7 7 7 7 7 7
4 1 2 3 3 2 2 2 2 2 2 3 4 5 6 6 5 6 7 7 8 9 10 9 8 7 7 7 8 9 8 7 7 6 6 6 5 5 6 6 6 6 6 7
4 2 1 2 4 4 3 3 3 4 4 4 5 6 6 7 7 6 7 7 7 8 8 9 9 7 7 7 7 8 8 7 6 5 4 4 4 3 5 4 4 5 6 7
4 3 3 3 2 3 4 4 5 6 7 7 7 7 7 8 7 7 8 8 8 9 9 9 9 8 7 6 6 6 6 5 4 4 3 3 4 4 6 7 4 6 7 8
4 4 2 0 2 4 5 6 7 7 8 8 8 8 9 9 8 9 9 8 9 9 9 9 9 9 7 5 5 4 3 3 2 2 2 2 2 3 4 6 10 11 11 11
1 0 2 2 4 5 7 8 9 9 9 9 9 9 9 10 10 10 9 9 9 9 9 8 9 8 6 5 5 4 2 2 1 1 1 2 2 3 4 5 5 5 9 13
1 0 3 5 7 8 8 9 10 10 10 10 10 9 9 10 10 9 9 8 9 9 8 8 8 7 5 4 4 3 2 1 0 1 2 2 3 4 5 6 6 7 7 5
2 6 8 9 10 10 10 10 10 10 10 10 9 9 9 9 9 9 8 8 8 9 8 7 6 5 4 3 3 2 1 2 1 3 3 3 4 5 5 6 7 7 7 8
6 8 9 10 10 10 10 10 10 9 9 9 9 8 8 8 8 8 8 7 7 7 6 6 5 4 3 2 1 1 1 1 3 5 4 4 5 5 6 7 7 7 8 6
6 8 9 9 10 11 10 10 9 9 8 7 7 7 6 7 7 7 6 6 6 6 5 5 4 3 2 2 2 3 2 3 3 4 4 4 5 6 7 8 8 9 8 7
10 10 10 10 11 10 9 8 8 7 6 6 6 6 6 6 5 5 4 4 4 4 4 3 2 0 1 2 2 2 3 4 4 4 5 4 6 7 7 7 8 8 8 8
10 10 10 10 10 9 8 7 6 5 5 5 5 5 5 5 4 3 3 2 3 3 2 2 1 1 1 1 4 4 4 5 6 6 6 6 7 7 7 8 8 9 8 8
9 8 8 8 7 7 6 5 5 5 4 4 4 4 4 3 2 2 0 1 3 2 1 2 2 2 2 3 5 6 5 6 6 6 6 7 7 8 8 8 8 8 8 9
7 7 6 6 5 5 5 4 4 4 3 3 3 3 2 1 1 1 1 2 1 2 3 3 2 5 5 7 6 6 6 6 6 6 7 7 8 8 8 9 9 8 8 9
5 5 4 4 4 4 4 3 3 3 2 2 2 2 2 3 3 3 2 1 2 2 4 3 4 4 6 7 6 6 6 7 7 7 7 8 8 8 8 9 8 8 8 9
4 4 4 3 2 2 2 2 2 1 1 1 1 1 3 3 3 3 3 2 1 2 4 2 1 3 7 6 6 6 7 6 7 7 8 8 8 8 8 9 9 9 9 10
3 3 2 2 1 1 1 0 1 1 2 1 2 2 3 3 4 4 4 3 2 4 4 1 4 4 7 6 6 6 6 6 7 8 8 8 8 8 8 8 9 8 8 9
2 1 2 2 2 2 2 2 2 2 2 3 3 3 3 3 4 4 4 4 5 4 5 4 3 4 5 6 6 6 7 6 6 7 8 8 9 9 8 9 11 9 8 9
1 0 1 1 1 2 2 3 3 3 3 4 5 4 4 4 4 4 5 5 4 4 5 5 5 5 5 6 6 6 6 6 7 7 7 7 8 8 8 9 8 8 8 8
Wind_Direction
262 268 259 246 236 223 228 247 261 263 260 253 210 203 194 191 188 186 187 188 189 188 188 188 189 189 192 191 188 187 189 192 192 192 191 194 193 195 198 203 208 209 216 220
252 250 250 251 246 236 235 246 254 263 265 267 237 211 198 193 194 193 193 193 193 192 190 190 191 191 191 191 188 187 191 193 190 191 191 194 196 199 202 207 213 214 221 226
249 249 248 244 238 236 235 238 247 254 257 246 221 213 209 200 200 201 199 197 195 194 193 193 192 191 191 189 185 187 192 193 189 192 194 196 200 201 205 209 212 218 224 230
250 238 243 247 254 248 246 248 248 256 265 254 254 233 219 213 208 206 203 199 196 195 194 193 191 189 190 185 185 188 191 193 191 193 196 197 202 205 208 212 216 220 226 231
242 237 245 226 221 237 240 250 254 251 256 268 254 207 190 200 212 211 205 201 196 195 192 189 187 185 185 185 186 189 192 194 192 193 195 197 202 207 209 213 219 223 228 232
237 245 247 216 109 215 249 234 25 283 257 246 228 228 139 106 195 196 191 185 182 180 180 178 179 178 181 184 186 190 191 192 190 192 196 200 205 208 209 214 223 231 232 234
240 244 251 61 115 207 233 64 39 17 351 251 240 350 30 68 138 152 155 156 154 155 159 164 167 172 181 182 186 187 184 183 183 189 197 201 203 206 210 216 225 235 242 241
233 238 228 56 220 293 22 20 17 23 41 67 78 63 68 83 104 121 132 139 141 140 141 145 155 163 170 176 175 172 172 175 178 184 195 192 196 203 210 219 224 231 239 248
285 333 49 24 11 4 338 333 359 19 54 95 98 88 81 82 92 105 114 124 133 135 130 131 144 154 160 161 161 161 162 166 169 175 186 191 193 201 210 217 235 240 242 248
266 231 21 8 14 12 17 16 34 77 96 111 109 100 92 90 91 98 104 114 122 125 124 125 129 135 137 139 146 150 152 156 163 173 182 186 203 211 223 227 237 249 258 264
269 299 321 57 31 32 53 68 88 96 94 96 104 101 97 95 90 93 101 107 113 117 119 120 121 122 124 128 138 142 145 150 160 172 184 190 201 225 241 247 262 267 276 279
307 341 326 348 27 71 86 84 88 95 93 86 86 90 90 89 89 92 96 102 105 107 109 111 113 111 112 119 130 138 143 151 161 172 176 202 212 216 214 238 235 239 253 272
302 318 323 120 103 98 101 96 91 89 90 89 84 85 89 90 90 91 91 94 99 102 105 108 107 105 107 116 124 128 134 147 164 177 180 213 236 255 256 230 225 233 236 237
315 229 154 122 103 104 106 101 95 89 83 80 82 83 85 86 84 83 84 88 94 98 100 101 100 101 108 115 116 115 128 130 179 181 227 241 254 267 273 282 278 262 231 222
26 125 132 117 111 108 106 103 98 92 87 82 80 80 82 82 82 81 82 86 91 93 94 95 95 94 99 107 105 106 110 97 37 303 273 275 279 280 283 284 286 288 292 258
110 120 120 117 112 109 104 98 94 91 88 86 83 79 79 82 83 83 83 84 86 84 84 86 88 90 92 93 100 117 112 86 305 285 275 275 279 281 284 285 285 288 293 299
123 122 120 114 109 102 95 91 91 90 90 87 87 91 93 91 87 83 83 82 81 82 82 80 77 75 74 68 10 331 323 171 223 264 280 292 294 292 292 291 292 294 295 305
103 110 113 114 111 104 97 92 89 89 91 97 98 96 95 94 91 89 87 87 83 77 69 64 59 51 46 30 350 331 313 296 289 294 295 294 299 292 289 292 295 296 297 290
99 105 107 108 108 106 101 94 90 88 88 90 92 95 95 92 91 90 87 89 89 86 72 65 67 35 36 17 322 281 297 301 297 295 293 289 276 284 295 298 300 300 302 305
92 95 100 106 106 103 101 99 95 90 87 88 88 90 88 86 87 87 87 76 59 51 49 28 325 313 311 336 306 295 299 299 300 303 300 298 300 303 302 304 307 307 308 307
86 88 93 96 96 97 99 104 106 103 102 98 92 89 88 90 94 88 54 73 80 52 341 255 262 307 333 342 283 293 302 304 303 303 301 300 302 302 302 304 304 304 306 306
91 91 91 93 96 91 85 88 92 96 100 96 84 73 72 67 30 331 319 345 19 51 300 296 338 25 357 313 294 304 307 304 303 304 303 302 303 303 302 302 302 304 306 307
93 91 87 85 84 85 83 75 67 62 61 60 58 27 359 342 329 315 316 4 343 15 304 336 39 22 316 290 299 305 306 307 305 305 305 306 306 305 303 303 303 304 304 305
81 80 75 68 65 78 75 61 51 35 16 329 344 342 309 300 303 313 339 47 18 317 302 52 66 303 282 285 299 305 308 308 307 307 306 305 304 303 304 305 305 306 306 306
62 66 73 54 35 48 73 237 227 235 265 299 317 323 310 319 320 329 325 319 310 278 289 212 195 257 280 300 308 314 315 320 319 314 307 306 306 306 307 307 307 306 304 303
46 8 22 6 3 325 310 314 317 325 324 324 321 328 327 324 314 307 298 297 301 295 293 297 288 269 294 311 318 320 318 315 306 301 309 311 309 307 305 307 308 306 304 303
322 317 293 306 337 332 328 326 324 327 328 327 324 325 322 318 313 313 308 305 308 307 309 310 309 310 316 319 321 322 320 317 317 318 316 315 313 310 309 308 306 304 302 300